Location: Nied?wied?
(53.3665°N, 14.8184°E)
Time: 00:50:16
(UTC+00:00)

Cosmos 1867 - Pass Details

Date: 03 March 2021
Orbit: 774 x 801 km, 65.0° (Epoch: 11 April)

Event Time Altitude Azimuth Distance (km) Brightness Sun altitude
Rises 17:19:54 0° 230° (SW) 3,280 7.7 -6.3°
Reaches altitude 10° 17:22:19 10° 232° (SW) 2,358 7.0 -6.7°
Maximum altitude 17:27:44 73° 317° (NW) 838 3.9 -7.5°
Drops below altitude 10° 17:33:14 10° 43° (NE) 2,384 5.7 -8.3°
Sets 17:35:42 0° 45° (NE) 3,319 6.4 -8.7°
